Location: Newark
(44.6394°N, 22.2943°E)
Time: 06:34:56
(UTC+00:00)

FO-29 - Pass Details

Date: 07 December 2023
Orbit: 799 x 1322 km, 98.6° (Epoch: 25 February)

Event Time Altitude Azimuth Distance (km) Brightness Sun altitude
Rises 03:46:09 0° 2° (N) 4,164 12.7 -21.8°
Reaches altitude 10° 03:49:51 10° 344° (NNW) 3,263 12.0 -21.2°
Enters shadow 03:51:23 14° 333° (NNW) 3,007 11.7 -20.9°
